Wind_Speed
50 48 47 46 46 47 47 47 48 48 47 47 47 46 44 42 40 39 39 39 39 39 40 41 42 43 44 45 46 48 49 51 52 53 55 56 57 59 60 61 62 63 64 66 67 69 71 73 74 75 77 77 77 75 75 74 75 75 74 72 69 66 63 61 59 58 57 56 54 54 55 55 54 53 55 56 56 55 57 58 59 59 60 61 62 63 64 65
49 49 47 46 45 44 44 45 45 45 45 46 46 45 42 40 39 39 39 38 38 38 39 41 42 43 44 46 47 49 51 52 54 55 57 58 59 60 61 63 64 65 66 68 70 71 73 74 76 76 76 75 75 74 74 74 73 70 67 64 61 59 58 57 56 55 55 55 54 55 57 58 56 56 57 58 59 59 60 61 62 63 64 65 66 67 68 69
49 49 47 46 44 43 43 42 42 43 44 44 44 42 40 38 38 38 38 38 38 39 40 41 43 45 46 48 50 52 53 54 56 57 58 59 60 61 62 64 65 67 68 70 71 73 74 75 76 75 74 74 74 74 72 69 66 63 60 58 57 55 55 54 54 55 55 56 56 57 61 62 61 60 62 62 63 64 65 66 67 68 69 70 70 71 72 73
48 48 47 46 43 42 41 41 41 41 41 41 41 40 39 38 38 38 38 38 38 40 41 43 45 47 49 50 52 53 55 56 57 58 59 60 61 62 63 65 67 68 70 72 73 74 75 74 73 73 73 73 71 69 65 62 59 57 56 55 55 55 55 55 56 57 58 58 59 60 64 66 66 66 67 68 68 69 70 71 72 73 74 75 75 76 77 78
45 46 46 45 42 41 41 40 40 40 40 39 39 38 37 37 37 37 37 38 40 42 44 45 47 49 50 52 53 54 55 56 57 58 59 60 62 63 65 67 69 70 72 73 74 73 73 72 72 72 71 68 65 61 58 56 55 54 55 55 55 56 57 58 59 60 62 63 64 65 67 70 71 71 72 73 74 74 75 76 77 78 79 80 80 81 82 83
42 43 44 43 41 40 39 39 39 39 38 38 37 36 36 36 35 36 37 40 42 43 45 47 48 50 51 52 53 54 54 56 57 58 60 61 63 65 67 69 71 72 73 73 72 71 71 71 70 68 64 61 58 56 55 55 55 55 56 57 58 60 61 63 64 65 66 67 68 69 71 73 75 76 76 77 78 79 80 81 82 83 84 85 85 86 87 88
41 41 43 41 39 38 37 37 37 36 36 36 35 34 35 35 36 38 39 41 43 44 46 48 49 50 50 51 52 53 55 56 58 59 61 63 65 67 69 70 72 72 71 70 70 70 69 67 64 60 58 56 55 55 55 56 57 59 60 62 63 64 66 67 68 69 70 71 72 73 75 77 79 80 81 82 83 83 84 85 86 87 88 89 90 90 91 92
43 41 41 40 39 37 36 35 35 35 35 35 35 35 36 37 38 40 41 42 44 45 46 48 48 49 50 51 53 54 56 58 59 61 63 65 67 69 70 71 70 69 69 69 68 67 64 60 58 56 55 55 56 57 58 60 61 63 65 66 67 68 70 71 72 73 74 74 75 76 78 80 82 83 84 85 86 86 87 88 88 89 90 91 92 92 93 94
45 42 40 40 39 37 35 35 35 35 36 36 36 37 38 39 40 41 42 43 44 45 47 47 48 49 51 52 54 56 58 59 61 63 65 67 68 69 69 68 68 68 67 66 63 60 58 56 56 56 57 58 59 61 62 64 65 67 68 70 71 72 73 74 75 76 76 76 77 78 79 81 83 83 83 85 86 87 88 89 89 90 90 91 92 93 93 94
45 44 41 40 39 38 36 35 35 36 36 37 37 38 39 40 41 42 43 44 45 46 47 48 49 50 52 54 56 57 59 61 63 65 66 67 67 67 66 66 66 65 62 59 57 56 55 56 57 58 59 61 63 64 66 67 68 70 71 72 73 74 75 76 77 78 78 77 77 77 78 80 83 83 83 83 85 86 87 88 89 90 91 91 92 93 94 95
44 44 43 41 39 38 37 36 36 36 37 37 38 39 40 41 42 43 44 45 46 47 48 49 50 52 54 56 57 59 61 63 64 65 65 65 64 65 65 64 61 58 56 55 55 55 56 58 59 61 62 64 65 67 68 69 70 71 72 73 73 74 75 75 76 77 77 77 77 76 76 79 82 82 82 83 84 85 87 88 89 90 91 92 93 95 96 97
43 43 42 41 39 38 38 37 37 37 37 38 40 41 42 43 44 45 45 46 47 48 49 50 52 53 55 57 59 60 62 63 63 63 63 63 63 62 60 57 55 54 54 54 56 57 59 61 62 63 65 66 67 68 69 70 70 71 72 73 73 73 74 74 74 75 76 77 77 76 76 78 82 83 83 84 85 86 88 89 90 91 92 93 94 96 97 99
40 40 41 41 41 40 39 38 38 39 39 41 42 43 43 44 45 46 46 47 48 49 50 51 53 55 56 58 60 61 61 61 61 61 61 60 58 55 53 52 52 53 54 56 58 60 61 63 64 65 66 66 67 68 69 70 70 70 71 71 72 72 73 74 74 75 76 77 78 78 78 80 83 84 84 84 85 86 87 88 89 89 90 91 92 94 96 97
37 38 40 41 41 40 40 40 40 41 42 42 43 44 44 45 46 46 47 48 49 50 51 53 54 56 57 58 59 59 58 58 59 58 56 54 51 50 51 51 53 55 56 58 59 61 62 63 64 65 66 66 67 68 68 69 68 68 69 69 70 71 72 74 75 75 76 77 78 77 78 80 82 83 83 82 82 83 84 84 84 85 86 87 89 90 92 93
36 37 38 38 39 39 40 41 41 42 43 43 44 44 45 45 46 46 47 48 49 50 52 53 55 56 56 56 56 56 56 55 54 51 49 49 49 50 52 53 55 56 58 59 60 62 63 64 64 65 65 65 65 65 65 66 67 67 68 69 70 71 72 73 74 75 75 76 76 75 74 76 79 81 81 81 81 82 82 82 83 84 85 86 87 89 90 91
36 36 36 36 37 39 40 41 41 42 43 43 43 44 44 44 45 46 47 48 49 51 52 53 53 53 53 53 53 53 51 49 47 46 47 48 50 52 53 55 56 58 59 60 61 62 62 62 62 61 61 62 62 62 63 64 66 67 67 68 69 70 71 72 72 73 73 74 75 75 73 75 78 80 81 81 82 82 83 83 83 85 86 86 87 88 89 90
34 34 35 36 37 38 39 40 40 41 41 41 42 42 42 43 44 45 46 48 49 50 50 50 50 50 50 50 48 46 45 44 45 46 48 50 51 53 54 56 57 58 59 59 58 58 57 57 58 58 59 60 61 61 62 63 65 66 66 67 67 68 69 69 70 71 72 73 74 75 74 75 77 79 80 81 81 82 82 82 83 84 85 85 86 87 89 90
32 32 34 35 36 36 37 38 38 38 38 39 40 40 41 42 43 45 46 47 47 47 47 47 47 46 45 43 42 42 43 45 46 48 49 51 52 54 55 56 56 55 55 54 54 53 54 55 57 58 59 60 60 61 61 61 62 63 64 64 65 66 67 67 67 67 69 70 72 72 71 72 74 77 79 79 80 80 80 82 83 84 84 84 86 88 90 91
30 31 32 33 33 34 34 35 35 35 36 37 38 39 40 41 42 43 43 43 44 44 44 43 41 40 39 39 40 42 44 46 47 49 50 51 52 53 52 51 50 50 50 51 52 53 53 54 55 55 56 57 57 58 58 58 59 58 59 60 60 61 63 64 63 63 62 64 68 69 68 71 72 75 78 78 79 79 80 82 84 84 84 85 87 89 91 92
29 30 30 31 31 31 31 32 32 33 34 35 36 37 38 38 39 39 40 40 40 39 38 36 36 36 38 40 42 43 45 46 48 49 49 49 49 48 47 46 47 47 48 49 50 50 50 50 50 51 51 51 52 53 53 54 54 54 55 55 56 56 58 60 60 60 60 59 63 67 67 71 72 72 76 77 78 79 80 82 83 83 84 85 87 88 90 92
27 28 28 27 27 28 28 29 30 31 32 33 33 34 34 35 36 36 36 35 34 33 33 34 35 37 39 41 42 44 45 45 46 46 45 44 43 43 43 44 45 45 45 45 45 45 45 45 46 46 47 47 48 48 49 50 50 51 52 52 53 53 55 59 60 59 59 58 59 63 65 69 70 70 73 75 76 78 79 82 82 83 84 85 87 88 90 92
23 23 23 24 24 25 26 26 27 28 28 29 30 31 31 32 31 30 29 29 29 31 33 34 36 38 40 41 42 43 43 43 42 41 40 40 41 41 41 40 40 40 40 40 41 41 41 42 43 43 44 44 45 46 46 46 47 49 50 51 53 53 53 55 58 59 61 60 58 60 62 66 70 70 71 75 77 78 80 82 82 82 84 86 87 88 90 91
19 19 20 20 21 21 22 22 23 24 25 26 27 27 26 25 25 25 26 28 30 31 33 35 37 38 39 40 40 40 39 38 37 37 37 37 37 36 36 36 36 36 37 37 37 38 39 40 41 42 43 44 45 47 48 49 50 51 52 53 54 56 56 54 55 58 62 65 63 61 63 67 72 73 73 76 78 80 81 82 82 82 84 85 86 88 88 89
15 16 16 16 17 17 18 19 20 21 22 21 21 20 20 21 23 24 27 28 30 32 33 35 36 37 37 36 35 35 34 34 33 33 33 32 33 33 34 34 35 35 35 36 36 38 39 41 43 44 46 47 49 50 51 53 54 54 54 56 57 58 60 60 59 59 63 68 69 67 65 67 73 74 74 76 78 80 81 81 81 82 83 85 86 87 88 88
12 12 12 13 14 15 16 16 16 16 15 16 16 18 19 21 23 25 27 29 30 32 33 34 34 33 32 31 30 30 30 30 29 29 30 31 31 32 33 33 34 35 36 37 39 41 43 45 47 48 49 50 52 53 54 55 56 57 58 60 61 61 63 64 65 65 65 67 70 70 68 67 71 75 75 76 78 79 80 79 80 82 83 85 86 87 88 88
8 9 9 10 10 11 10 10 11 12 13 15 16 18 20 22 24 26 27 28 30 31 30 30 29 28 27 27 27 27 27 27 28 29 30 31 31 32 32 33 35 37 40 41 43 45 47 49 50 52 53 54 55 57 58 58 59 61 62 63 64 64 65 66 67 68 67 68 71 72 71 69 70 74 76 77 78 78 78 79 80 82 83 85 86 86 86 86
5 5 4 5 5 6 7 8 10 12 14 16 18 20 21 23 24 25 27 28 28 27 26 24 25 25 25 25 25 25 26 27 28 29 30 30 31 33 34 36 39 42 44 46 48 50 51 52 54 56 57 58 59 61 61 62 62 63 63 64 65 65 66 66 67 68 69 70 72 74 74 72 70 74 78 79 79 78 78 81 81 82 83 84 84 84 84 84
2 1 0 2 3 5 7 9 11 13 15 17 19 20 21 22 24 26 25 24 22 22 22 22 22 22 22 22 23 24 26 27 28 29 30 31 34 36 38 41 44 47 49 50 52 53 55 56 59 60 62 62 63 63 64 64 64 64 64 64 65 66 66 66 66 68 69 70 73 75 76 74 71 74 79 80 80 80 80 81 81 82 83 83 83 83 83 83
3 1 1 3 5 6 9 11 13 15 16 17 18 20 22 23 23 22 19 19 19 19 21 21 20 20 21 23 24 25 27 28 29 31 33 35 38 41 44 47 49 51 53 54 55 57 59 61 62 63 64 64 65 66 66 66 66 66 66 66 66 67 67 67 68 69 69 70 72 75 78 78 75 74 79 80 79 80 81 81 81 82 84 84 84 84 84 84
1 1 2 4 7 9 11 12 13 14 15 17 19 20 21 20 18 17 16 17 18 18 18 19 19 21 22 24 25 27 29 30 33 35 38 41 43 46 49 51 53 55 56 58 59 60 62 62 63 64 65 66 67 68 69 69 69 69 69 68 67 67 67 67 69 69 69 69 71 75 77 80 80 79 80 80 79 80 82 82 83 84 85 86 86 86 85 84
1 3 5 7 9 10 10 12 13 14 16 18 19 18 16 15 14 15 16 17 17 17 18 19 21 22 24 25 27 29 31 34 38 40 42 45 47 50 52 53 56 58 59 61 62 63 63 64 65 66 67 68 68 70 71 72 72 72 73 72 69 68 67 66 68 69 69 68 69 73 75 78 81 83 84 82 80 81 82 83 83 84 85 85 85 85 84 83
5 6 7 8 8 9 10 12 14 15 16 16 15 13 13 13 14 16 17 16 16 18 19 20 22 23 25 28 30 33 35 39 43 45 47 49 51 53 55 57 58 60 61 62 64 66 66 66 67 67 68 69 69 70 72 73 74 74 76 77 76 73 70 68 68 69 69 70 71 73 75 76 80 84 85 83 82 83 84 83 83 84 85 85 84 83 82 82
6 6 7 7 8 10 11 13 14 14 13 11 11 12 12 14 15 16 16 16 17 19 20 22 24 26 28 31 35 38 41 44 46 48 51 52 54 56 58 60 61 62 62 63 64 67 67 67 68 68 69 69 70 71 73 74 75 76 78 80 81 80 78 75 75 74 72 71 73 76 79 80 82 86 86 84 83 84 84 83 83 84 84 84 83 83 82 81
6 6 6 8 9 11 12 13 12 10 9 10 12 13 14 16 16 16 17 18 19 20 22 25 27 30 34 37 41 43 45 47 49 51 54 56 58 60 61 62 63 64 64 65 65 67 69 68 68 69 71 71 72 73 75 76 77 78 80 82 84 85 84 82 81 81 78 75 74 78 81 84 86 88 88 86 85 86 85 84 83 83 84 84 83 82 81 79
5 6 8 10 11 11 10 9 8 9 10 13 14 14 16 17 17 17 19 20 21 23 26 28 32 36 39 42 44 47 49 52 54 56 58 59 60 61 62 63 64 64 65 65 65 66 69 71 70 71 72 73 74 75 77 78 79 80 81 83 85 85 86 85 84 85 84 80 79 80 83 86 89 90 89 88 88 87 86 84 83 83 83 83 81 79 78 77
7 9 10 10 10 8 8 8 9 11 13 14 15 15 17 17 17 18 20 22 25 28 30 34 38 41 44 46 48 51 53 55 57 58 59 60 61 61 62 62 63 64 64 65 65 65 67 70 71 71 73 74 75 76 78 80 81 82 83 84 85 86 87 87 85 85 85 83 82 84 86 87 91 90 87 88 88 86 85 83 82 82 81 80 79 77 76 75
9 9 9 8 7 7 8 10 12 14 15 15 15 17 17 18 19 20 23 26 29 33 36 39 42 44 47 50 51 53 55 56 57 58 59 60 61 61 61 62 62 63 64 65 66 66 66 69 72 72 73 75 76 77 80 82 83 84 84 85 87 88 89 90 90 88 86 84 82 85 89 91 94 94 90 90 89 88 86 83 81 80 79 78 77 76 74 72
8 8 7 7 8 9 12 14 15 16 16 15 16 17 18 19 22 24 27 31 34 38 40 43 46 48 50 51 52 53 54 56 57 57 58 59 60 61 61 62 62 63 64 65 66 67 68 69 72 74 75 76 78 80 82 84 85 86 87 88 90 91 91 91 94 94 92 90 86 85 89 94 97 96 95 93 93 92 89 85 82 81 81 80 78 75 72 70
8 7 8 9 11 13 15 16 16 16 16 16 17 18 19 22 25 28 32 35 39 42 44 46 48 49 50 51 51 52 53 55 56 57 57 58 59 60 61 62 62 63 65 66 67 69 70 71 73 76 78 79 81 82 85 87 88 89 90 91 92 93 94 93 95 97 97 96 93 87 89 96 100 98 96 96 95 94 92 89 86 85 84 82 80 77 73 69
8 8 10 13 14 15 16 16 16 17 17 17 18 20 23 26 29 32 36 39 42 44 46 47 47 48 49 50 50 51 52 54 55 56 57 58 59 60 60 62 63 64 66 68 69 71 73 74 75 77 80 82 84 85 87 89 91 92 93 94 94 96 97 96 96 97 98 99 97 91 89 96 101 99 97 97 96 96 95 92 88 85 83 82 80 78 74 70
10 12 15 16 15 16 17 17 17 17 18 19 21 24 26 29 32 36 39 41 43 45 45 46 47 47 47 48 49 50 51 53 55 56 57 58 59 60 61 63 65 67 69 71 72 73 75 77 78 79 81 83 85 87 89 91 93 95 96 97 98 98 100 101 100 99 98 100 100 96 92 95 99 98 98 98 97 96 95 92 88 84 82 80 78 77 73 71
14 16 17 16 16 17 18 17 17 18 19 22 24 27 30 32 35 38 40 42 43 44 45 46 46 46 46 46 47 49 51 53 54 56 57 58 60 62 64 66 68 70 72 73 75 76 77 78 79 80 82 84 86 88 90 93 95 97 98 99 100 101 102 104 105 102 99 100 102 99 94 96 98 98 97 97 95 95 93 91 88 83 81 80 78 75 72 70
17 17 17 17 18 19 18 17 18 20 22 24 27 30 32 35 37 38 40 42 43 44 45 45 45 44 44 45 46 48 50 52 54 55 57 59 62 64 66 69 71 73 74 76 77 79 80 81 81 81 82 84 87 88 91 95 97 98 100 101 101 103 104 106 107 105 101 100 102 100 95 95 98 97 96 96 94 93 92 90 88 84 81 79 77 74 71 69
18 18 18 18 19 19 18 19 21 23 25 27 29 31 33 35 37 38 40 41 43 45 45 44 44 43 43 45 46 48 50 52 54 56 59 61 63 66 69 71 73 75 77 78 80 82 83 85 86 86 85 85 87 89 91 94 98 100 101 103 104 105 106 107 108 107 103 101 103 103 98 94 95 95 94 94 93 92 91 90 88 86 83 80 77 74 71 69
19 20 19 19 20 19 19 21 24 25 26 28 30 32 34 35 36 37 39 41 43 44 44 43 43 43 44 46 48 50 52 53 55 57 60 63 65 68 71 73 75 77 79 81 83 84 86 88 91 92 92 92 93 95 96 98 99 101 104 106 107 107 108 109 111 110 107 103 103 106 103 97 95 94 92 91 90 89 89 87 86 85 83 80 77 74 72 71
21 21 20 20 20 20 21 24 25 26 27 29 30 32 33 34 35 36 39 41 42 43 43 43 43 44 46 48 49 51 53 54 56 58 61 64 67 69 72 74 77 79 81 84 86 87 89 90 93 95 97 97 98 100 101 103 103 105 106 107 108 109 109 111 113 112 111 107 104 106 106 102 97 94 92 91 89 89 88 87 84 83 81 78 75 74 73 74
21 21 21 21 21 21 24 25 26 26 28 29 30 30 31 32 34 36 38 40 42 43 42 42 43 44 46 48 49 52 54 56 59 61 63 65 68 70 73 76 79 81 84 86 88 90 91 92 95 97 98 99 100 101 103 105 107 108 109 109 110 111 112 113 114 114 112 111 106 104 104 103 99 95 94 93 93 91 90 87 84 82 79 77 75 73 73 74
22 21 21 21 22 23 24 25 25 27 27 28 29 29 30 31 33 35 37 39 41 42 42 42 43 44 45 47 49 52 56 59 61 63 64 66 68 71 74 77 80 83 86 88 90 92 93 94 96 98 99 100 102 103 105 107 108 109 111 112 113 114 114 114 116 115 113 112 109 105 103 103 101 99 97 97 95 93 91 88 86 83 80 77 75 74 74 75
21 20 21 22 22 23 24 24 25 26 26 27 27 27 28 30 32 34 36 39 41 41 42 42 42 43 45 48 51 54 56 59 62 64 65 66 68 71 74 77 81 85 88 90 93 95 96 97 98 99 101 102 103 105 107 108 109 111 112 114 114 115 115 116 117 116 113 112 111 109 106 105 105 103 101 99 97 94 92 89 86 84 81 77 75 75 75 76
20 20 21 22 22 22 23 23 24 25 25 25 25 26 27 29 31 33 36 38 40 41 41 42 43 44 47 50 53 56 59 61 63 64 66 67 70 73 75 79 82 86 90 92 94 97 99 100 100 101 102 103 104 105 107 109 111 112 113 114 115 115 116 117 118 118 116 113 112 111 109 107 105 103 100 98 97 94 92 88 85 82 80 77 75 74 75 77
19 19 21 21 21 21 22 22 23 24 24 24 24 25 26 28 30 32 35 37 39 40 41 42 44 46 49 52 55 58 61 63 65 66 68 70 72 75 78 81 84 87 90 93 96 98 100 102 102 103 104 105 106 107 108 109 111 112 114 114 116 116 117 119 121 121 120 119 116 114 112 109 106 103 100 98 96 94 91 87 83 80 78 76 76 76 77 78
19 19 19 20 20 20 21 22 23 23 23 23 23 24 25 27 28 30 33 36 38 39 41 42 45 47 50 53 56 59 62 64 66 67 70 72 75 78 80 83 86 88 91 93 96 98 101 103 105 106 107 107 108 109 110 112 112 114 116 117 118 119 119 120 123 124 123 122 121 118 115 112 109 105 101 98 95 94 92 88 84 81 78 77 78 79 80 79
Wind_Direction
220 222 222 223 225 227 229 232 236 238 241 242 245 247 251 254 255 256 257 259 260 263 265 266 267 267 269 270 273 275 277 278 279 279 280 281 282 282 283 284 285 286 286 287 288 288 289 289 290 291 292 293 293 294 294 294 294 294 294 294 294 293 293 293 293 293 292 291 290 288 287 286 286 285 284 284 283 282 281 281 280 280 280 280 279 279 279 278
220 222 223 224 226 227 229 232 236 239 241 243 245 249 251 253 255 257 259 261 262 265 266 267 268 269 270 273 275 277 278 279 280 280 281 281 282 284 285 286 287 287 288 288 289 289 290 291 293 294 294 295 295 295 295 295 295 295 294 294 294 294 294 294 293 292 292 291 290 289 288 287 286 285 284 284 284 283 283 282 282 281 280 280 279 279 279 279
218 221 223 225 226 228 229 231 234 237 240 243 246 249 251 253 256 259 260 262 264 265 267 268 270 272 274 275 277 278 279 279 280 281 281 283 284 286 286 287 288 288 289 289 290 291 293 294 295 296 296 296 296 297 296 296 296 296 296 296 296 295 294 294 293 292 292 291 290 290 289 288 288 287 286 285 285 284 284 284 283 283 282 281 281 280 280 279
216 220 223 225 226 227 228 230 232 236 239 243 246 248 251 254 257 259 260 263 265 267 269 270 272 274 275 276 277 278 279 280 281 282 283 285 286 287 288 288 289 289 290 292 293 294 295 296 297 297 297 297 297 297 297 297 297 297 297 297 296 296 295 294 292 292 291 291 291 291 291 290 290 290 289 288 287 286 286 285 284 283 283 282 281 280 280 279
214 219 223 226 226 227 228 230 233 236 239 243 246 248 251 254 257 260 262 265 267 269 270 272 273 274 275 276 278 279 280 282 283 284 286 287 287 288 289 289 290 291 293 294 296 297 297 298 298 298 298 298 298 297 297 297 297 297 297 297 296 295 294 293 293 293 293 293 293 293 292 292 291 291 290 289 289 288 287 286 285 284 283 282 282 281 280 280
212 216 222 226 227 229 230 232 235 238 240 243 246 248 252 255 259 262 265 267 269 270 272 273 273 274 275 277 279 281 282 284 285 286 287 288 288 289 290 291 293 294 296 297 297 298 298 298 298 298 298 298 298 298 297 297 297 297 296 296 295 295 295 294 294 294 295 295 294 294 293 292 292 291 290 290 289 288 288 287 286 285 284 283 282 282 281 280
214 214 218 223 227 230 232 234 237 238 241 244 247 250 253 257 260 263 266 268 270 271 272 273 274 275 277 279 281 283 285 286 287 287 288 289 290 291 292 294 295 297 297 298 298 298 298 298 298 298 298 298 298 298 298 298 298 297 297 297 297 297 297 297 297 296 296 296 295 294 293 292 291 291 291 290 289 288 287 286 285 285 284 283 282 282 281 280
217 215 216 220 225 229 232 234 236 238 241 244 248 251 254 258 261 264 267 269 271 272 273 274 276 278 280 282 284 286 287 287 288 288 289 290 291 293 295 296 297 298 298 299 299 299 299 299 299 299 300 300 300 300 299 299 299 299 299 299 299 299 299 298 297 297 296 295 295 294 292 291 290 290 290 289 288 287 286 285 284 284 283 282 282 281 281 280
219 219 218 220 223 227 231 234 237 238 241 245 248 252 255 259 262 265 268 271 273 274 275 276 278 281 283 285 286 287 288 288 289 289 291 292 294 295 296 297 298 298 299 299 299 299 300 300 301 301 301 301 301 301 300 301 301 301 301 301 301 300 299 298 297 296 295 294 293 292 291 290 289 288 288 288 287 287 286 285 285 284 283 283 282 282 281 280
219 221 222 223 225 227 230 234 237 239 242 246 249 253 257 261 264 268 271 273 275 276 277 279 281 283 285 286 287 288 288 289 290 291 293 294 296 297 297 298 299 299 300 300 300 301 302 302 302 302 302 302 302 302 303 303 302 302 302 301 300 299 298 297 296 294 293 292 292 291 290 289 288 288 287 287 286 286 286 286 285 285 284 284 283 283 282 281
220 222 224 226 228 230 233 236 238 241 245 249 253 257 260 264 268 271 273 274 276 277 279 281 283 284 285 286 287 288 289 290 291 293 294 296 297 298 299 300 300 301 301 302 303 303 303 303 303 303 303 304 304 304 303 303 302 301 300 299 298 296 295 294 294 293 292 291 291 290 289 289 288 288 287 287 287 286 286 286 285 285 284 284 283 283 282 281
220 223 225 227 230 233 236 238 241 246 250 254 257 260 264 267 270 272 274 275 277 278 280 281 283 284 285 286 287 288 290 291 293 295 296 297 299 300 301 301 302 303 304 304 304 304 304 304 305 305 305 305 304 303 302 301 300 298 297 296 295 295 294 293 293 293 293 293 292 292 291 290 289 289 289 288 287 286 286 285 284 284 283 283 282 281 281 280
219 222 225 228 231 235 238 242 246 250 254 257 260 262 265 268 270 272 274 275 277 278 280 282 283 284 285 287 288 290 292 294 295 297 298 300 301 302 303 304 304 304 304 305 305 305 306 306 305 305 304 303 302 300 299 298 298 297 297 297 296 297 296 296 296 296 296 295 295 295 294 292 290 289 289 288 287 286 285 284 284 283 283 282 282 281 281 280
219 222 225 228 232 236 240 244 248 252 255 258 260 263 265 267 269 271 273 275 277 279 281 282 283 285 287 289 291 293 295 297 298 300 301 302 303 304 304 304 305 305 305 306 306 306 305 304 303 302 302 301 301 300 300 300 300 300 300 300 300 300 299 299 299 298 297 296 295 294 293 292 291 290 290 289 288 288 287 286 286 286 285 285 284 284 283 283
218 221 225 228 232 236 241 244 248 251 254 257 260 262 265 267 269 271 273 275 277 279 281 282 284 287 289 291 293 296 298 300 301 302 303 304 304 305 305 305 306 306 307 306 306 305 304 304 304 303 303 303 303 303 303 304 304 304 303 303 302 302 301 300 299 298 297 297 296 295 295 295 295 295 294 294 293 292 292 291 291 290 289 288 287 287 286 285
217 221 224 228 232 236 240 244 247 251 254 257 260 262 264 266 269 271 274 276 278 280 282 285 287 290 293 295 297 299 301 303 304 304 305 305 305 306 307 307 307 307 307 306 306 306 306 306 306 306 306 306 307 307 307 306 306 305 305 304 303 302 301 301 301 300 300 300 300 300 300 300 299 298 298 297 296 296 295 295 294 293 291 291 290 289 288 288
215 220 224 228 232 236 239 243 247 250 253 256 259 261 264 267 270 272 275 277 279 282 285 288 291 294 297 299 301 303 304 305 305 305 306 307 308 308 308 308 308 307 307 307 308 308 309 309 309 310 310 310 310 309 308 307 307 306 306 305 305 304 304 304 304 305 305 305 304 304 304 303 301 300 299 298 298 298 297 297 296 294 294 294 293 293 292 291
214 218 223 227 231 235 239 243 246 250 253 257 260 263 265 268 271 274 277 279 283 286 289 292 295 298 300 301 303 304 304 305 306 307 309 310 310 309 309 309 309 309 310 310 311 312 313 314 314 313 313 312 311 311 310 309 309 309 309 309 309 309 308 308 307 307 307 307 306 305 305 304 302 302 302 301 301 301 300 299 298 297 297 297 297 296 295 295
212 217 222 226 231 235 239 243 247 251 255 258 261 264 268 271 274 277 280 284 287 291 294 297 300 301 302 303 304 305 307 308 310 310 310 310 310 310 310 311 312 313 314 315 316 317 318 317 316 315 314 314 314 313 313 313 313 313 313 313 312 312 311 309 309 309 308 308 308 308 308 306 306 306 305 304 304 303 302 301 300 300 300 299 299 298 297 295
212 217 222 227 232 236 241 245 249 253 256 260 264 267 271 275 278 282 285 289 293 296 299 301 302 303 304 306 308 309 311 311 311 310 310 311 311 312 314 316 317 319 320 321 321 321 320 319 318 318 317 317 318 318 318 318 318 318 317 316 315 315 314 313 313 313 312 312 312 311 311 309 308 307 305 304 304 303 302 300 300 301 301 300 299 297 296 295
213 218 223 229 234 238 243 247 251 256 260 264 268 272 276 280 284 288 292 295 298 301 302 303 305 306 309 311 312 311 311 311 311 312 313 314 316 319 321 323 324 324 325 324 324 324 323 323 323 323 323 323 323 323 323 323 323 322 321 321 320 320 320 318 318 317 315 315 314 312 311 308 306 306 304 304 304 304 303 301 302 303 302 301 299 298 296 295
215 220 225 230 236 241 246 251 256 260 265 270 274 279 283 287 291 295 298 300 301 304 306 308 311 312 312 312 312 312 312 313 315 317 319 322 324 326 327 328 328 328 329 329 329 329 329 329 329 330 331 331 331 330 330 330 329 328 327 326 325 324 325 322 319 319 317 317 316 313 312 309 307 308 307 307 307 307 305 304 305 304 302 300 299 297 296 295
214 220 226 233 239 245 251 256 262 267 272 278 282 286 290 294 296 299 300 302 306 310 312 313 314 313 312 312 313 315 317 320 323 325 328 330 331 331 332 333 333 334 335 335 336 336 337 339 340 341 341 340 340 339 339 338 337 336 333 331 330 328 328 326 323 322 320 319 320 318 318 315 312 312 311 311 310 308 307 306 306 305 302 300 299 297 297 296
214 221 229 237 245 252 259 265 271 276 281 286 290 293 295 296 299 302 306 311 314 315 315 313 312 312 314 316 318 321 325 329 332 333 333 334 335 336 339 340 342 342 343 344 346 348 349 350 350 351 350 348 348 346 345 343 341 340 338 336 335 333 332 331 329 329 326 324 323 322 321 318 315 314 313 312 311 308 307 308 307 305 303 302 301 301 300 299
217 227 238 248 256 264 269 276 281 286 290 292 294 295 297 302 307 312 315 316 315 313 313 312 313 316 319 322 326 330 334 336 337 337 338 340 343 345 347 348 350 351 352 355 356 358 358 356 356 355 354 353 351 350 349 347 345 344 343 340 339 338 336 334 333 333 331 327 323 321 322 320 317 315 314 313 310 308 309 309 308 307 306 305 304 303 302 301
228 240 250 259 266 273 280 286 290 292 293 294 297 303 310 314 316 316 314 313 313 313 314 317 320 325 329 333 336 337 339 342 343 345 347 349 351 353 354 356 359 359 0 1 2 2 1 359 358 357 357 356 354 353 352 351 349 347 346 344 342 341 339 337 335 334 333 328 323 322 322 322 321 317 315 313 311 312 314 313 312 310 309 307 305 304 303 301
223 238 253 266 277 286 290 291 292 295 299 307 314 318 318 316 314 313 312 314 316 318 322 327 331 336 341 343 343 344 347 350 352 354 356 358 359 0 2 3 4 4 4 4 3 3 2 0 359 358 358 357 356 355 354 352 350 349 347 345 344 343 341 339 336 334 333 329 325 324 323 324 324 319 316 316 315 318 319 316 314 312 310 308 306 305 303 302
142 151 230 277 286 288 290 298 306 313 318 322 320 317 314 313 313 314 317 321 324 328 334 340 342 346 349 349 351 355 358 360 1 2 3 4 5 6 6 6 6 6 6 5 4 3 2 1 360 359 358 357 356 355 354 353 351 349 348 347 345 344 342 340 338 336 334 330 327 325 324 325 326 322 319 319 320 322 320 317 315 313 311 310 309 308 307 306
115 136 249 279 291 303 314 322 325 325 323 318 314 312 313 314 317 321 326 333 338 343 348 352 352 355 358 360 3 6 7 7 8 8 8 8 8 8 9 8 7 7 5 4 4 3 2 1 360 359 357 356 355 354 353 352 351 349 348 348 346 345 344 342 339 338 336 332 329 327 325 326 328 325 321 321 324 324 320 318 317 316 314 314 312 311 310 310
142 259 302 320 328 333 333 330 326 321 315 312 313 315 318 323 328 333 342 351 356 360 1 1 3 6 9 11 13 13 13 13 12 12 11 10 10 10 9 9 8 6 5 4 3 3 2 0 359 358 357 355 354 353 352 352 350 348 347 348 347 345 345 343 340 339 337 334 331 328 327 328 328 326 323 325 327 325 321 321 320 319 317 316 315 314 313 312
6 350 347 346 342 337 330 324 318 314 313 316 319 324 331 338 344 353 2 6 8 10 9 10 14 16 17 17 17 17 15 14 14 13 13 12 11 10 9 8 7 6 4 3 1 1 1 360 358 358 356 355 354 352 351 351 350 348 346 346 347 346 346 344 341 339 338 336 333 330 330 329 328 325 324 328 329 325 323 323 322 320 319 318 317 316 314 313
7 360 353 345 337 329 322 317 315 316 320 326 332 342 351 356 5 15 19 17 15 18 19 20 22 22 22 21 19 18 16 16 16 14 13 12 11 10 9 8 7 5 4 3 0 359 360 360 358 357 356 355 354 352 351 350 350 348 346 345 345 346 346 345 342 341 341 340 336 333 331 331 329 325 326 330 330 326 325 325 323 322 320 319 318 317 316 316
5 357 346 336 327 320 318 318 321 328 335 344 356 5 12 19 25 28 26 24 24 26 27 26 26 24 23 21 19 19 18 17 16 15 14 12 11 10 8 7 6 4 3 2 1 359 358 359 357 356 355 354 353 352 351 351 350 349 347 345 345 345 346 346 343 342 344 344 340 335 333 333 330 326 329 332 331 328 327 327 325 323 321 320 320 320 320 318
358 345 333 327 322 322 325 330 338 350 1 13 21 26 32 36 35 32 31 31 31 31 30 28 26 24 23 22 21 19 17 16 15 15 14 12 10 9 7 6 4 3 3 2 1 359 357 358 357 355 355 354 354 352 351 351 351 350 348 346 346 345 345 346 344 343 345 346 343 338 336 335 331 329 332 334 331 330 329 328 327 325 324 323 323 322 320 318
342 333 330 329 329 334 342 353 10 23 30 36 39 40 43 42 38 37 37 35 34 32 30 28 26 24 23 22 21 19 17 16 14 14 13 11 10 8 6 5 3 2 2 1 1 359 357 357 357 356 355 355 354 353 352 352 352 351 349 347 347 346 345 346 345 344 344 346 345 341 338 336 332 332 335 334 332 331 330 329 328 327 326 324 323 322 320 319
337 336 337 338 346 358 15 31 41 45 47 50 49 46 46 45 42 41 40 37 34 32 30 28 26 24 22 21 19 18 17 16 14 12 11 9 8 7 5 4 3 2 2 1 1 0 358 357 357 357 356 355 355 353 353 353 353 352 351 349 348 346 346 346 345 345 344 345 345 342 341 338 332 333 336 334 332 331 331 331 329 327 326 324 324 323 321 320
344 344 349 360 18 37 49 52 53 56 58 55 52 50 49 49 46 43 40 37 34 32 29 27 25 23 22 20 19 17 16 15 13 11 9 8 7 6 5 4 3 3 2 1 1 1 360 358 357 357 357 356 355 355 354 354 354 354 352 350 348 347 347 346 345 345 345 345 346 344 343 339 334 335 337 335 333 333 332 331 329 328 327 327 326 324 322 320
355 3 19 37 53 58 60 61 63 64 62 56 54 55 52 50 47 42 39 36 33 31 28 26 24 22 21 20 18 16 15 13 11 10 9 7 7 6 6 5 4 3 2 2 2 0 1 1 358 357 357 357 356 356 355 355 355 354 353 351 349 348 348 347 345 346 346 346 346 347 346 340 335 337 338 336 335 334 333 332 331 331 330 329 327 324 323 321
22 35 54 63 65 65 67 70 70 66 63 58 57 58 54 50 46 41 38 35 32 30 28 26 24 22 20 19 18 15 13 12 10 9 9 8 8 7 7 6 6 5 3 3 3 1 0 1 1 359 358 358 357 357 356 355 355 355 353 352 351 349 349 348 347 347 347 346 345 349 349 341 337 339 339 337 336 334 333 334 334 334 332 330 328 325 324 323
53 63 70 70 69 72 73 73 70 66 63 62 60 57 53 48 44 40 37 35 32 30 28 26 24 22 20 18 16 14 12 11 10 10 9 9 10 9 8 8 7 6 5 4 4 3 1 2 2 1 359 359 358 358 357 356 356 355 354 353 352 350 349 349 349 349 348 346 345 348 350 343 338 340 340 338 337 336 335 335 335 334 332 330 328 326 325 324
73 73 73 73 76 78 76 71 68 67 66 63 60 55 50 46 42 40 37 34 32 30 28 27 24 23 20 17 15 14 12 12 11 11 11 11 12 11 10 9 8 7 7 5 4 4 3 2 3 2 1 0 360 359 358 357 356 356 355 354 353 351 350 349 350 351 350 347 344 347 350 345 340 341 340 338 338 337 335 334 334 333 332 330 328 327 326 325
77 76 77 80 81 77 74 71 70 69 67 62 58 53 48 45 42 40 37 34 32 30 29 27 25 23 20 18 16 14 13 13 13 13 13 13 13 13 12 11 10 9 8 7 5 5 3 2 3 3 2 1 0 360 358 357 357 356 356 355 354 352 351 350 350 352 351 348 345 346 349 346 342 342 341 339 338 337 335 333 333 333 332 331 329 328 327 326
81 83 85 83 79 75 74 73 71 69 66 60 55 51 47 45 43 40 37 34 32 31 29 27 25 22 20 18 17 16 15 15 15 15 15 15 14 14 13 12 12 11 10 8 7 6 4 2 2 4 4 2 1 0 359 358 357 357 356 355 355 353 352 351 350 351 352 349 345 346 349 348 344 343 342 339 338 337 335 334 334 334 333 331 330 329 327 326
88 88 86 82 78 75 75 74 71 67 63 57 53 50 47 45 42 40 37 34 32 30 28 26 24 22 20 19 18 17 17 17 18 17 16 16 16 15 15 14 13 12 11 10 9 7 6 3 2 3 3 3 1 0 0 359 358 358 357 356 356 355 353 352 351 351 352 351 347 345 349 349 346 344 343 340 338 337 336 335 335 335 334 333 331 329 327 325
91 88 84 80 78 76 75 73 69 65 59 56 52 49 47 44 42 40 37 34 31 29 27 25 24 23 21 20 19 19 19 19 19 18 17 17 16 16 16 15 14 13 12 11 10 9 8 5 3 2 3 3 2 1 1 360 359 358 358 357 357 356 354 352 352 352 352 352 349 346 347 349 348 346 343 340 339 338 337 337 337 336 335 333 332 330 328 327
89 86 84 81 79 78 74 70 66 61 57 54 51 48 47 44 41 39 37 34 30 27 26 25 25 24 22 21 21 20 19 19 18 18 18 17 17 17 17 16 15 14 13 13 12 10 9 8 5 4 4 3 2 2 1 0 359 359 359 358 357 356 355 353 352 353 352 352 351 348 347 349 348 347 344 342 341 340 338 338 338 337 336 334 332 331 330 329
88 86 84 82 80 77 73 69 64 59 55 53 50 47 46 43 41 39 36 33 29 27 27 27 26 24 23 22 22 20 19 18 18 18 18 17 17 16 16 16 16 15 14 13 12 11 10 10 7 5 4 4 3 2 2 1 0 360 359 359 358 357 356 354 353 353 352 351 352 351 349 348 348 348 346 344 343 342 340 340 340 338 337 335 334 332 331 330
89 86 84 84 81 76 72 68 62 57 53 50 48 47 45 42 40 38 35 31 28 27 28 27 25 24 24 23 22 21 19 18 17 17 17 17 17 16 16 17 16 15 15 14 13 12 11 11 9 7 5 5 4 3 3 2 1 0 360 359 359 358 357 355 354 354 353 351 351 351 351 350 349 349 349 347 345 343 341 341 341 340 338 337 335 333 332 330
90 88 86 84 80 76 71 65 59 54 50 48 48 45 43 41 39 37 34 30 28 28 28 27 25 24 23 23 22 21 20 19 18 17 17 17 17 16 16 17 16 16 15 15 14 13 12 11 10 8 6 6 5 4 3 2 1 1 0 360 360 359 357 355 354 354 354 353 352 352 353 352 351 351 350 348 346 344 342 342 342 341 339 337 335 334 332 331
90 89 87 83 79 75 69 61 55 51 48 47 46 44 41 39 38 37 34 30 30 29 28 26 24 23 23 22 21 20 19 18 17 17 17 16 16 16 16 16 17 16 16 15 14 13 12 11 10 9 7 6 5 4 3 3 2 1 1 0 360 359 358 355 354 355 354 354 354 354 354 354 353 352 350 349 347 345 343 343 343 341 339 337 335 334 333 332
92 90 87 83 78 71 64 57 52 50 47 46 45 42 40 38 38 38 34 31 31 29 27 25 23 22 22 21 20 19 17 17 16 16 16 16 15 15 15 16 16 16 15 14 13 12 11 10 9 8 7 6 5 4 3 3 2 1 0 0 360 360 359 356 355 355 355 355 356 355 355 354 353 352 351 350 348 346 344 344 344 341 339 337 336 336 334 333
95 92 88 83 76 66 59 54 51 48 46 44 43 40 38 37 39 38 34 32 30 28 26 24 23 23 22 20 19 18 17 16 16 16 16 15 15 15 15 15 15 14 13 12 12 11 10 9 8 8 7 6 5 5 3 2 1 1 0 360 360 359 359 358 356 356 357 356 356 356 355 354 354 353 352 351 349 347 345 345 344 342 340 339 339 337 336 335
Height
10709 10711 10715 10717 10719 10722 10724 10726 10727 10729 10731 10733 10734 10735 10736 10737 10738 10738 10739 10739 10740 10740 10740 10739 10738 10738 10736 10735 10733 10732 10730 10728 10726 10724 10721 10719 10717 10714 10712 10710 10708 10706 10703 10700 10697 10693 10690 10686 10683 10680 10676 10673 10670 10666 10663 10659 10656 10652 10648 10644 10641 10638 10634 10631 10629 10626 10624 10622 10621 10617 10613 10611 10612 10611 10606 10603 10602 10601 10597 10594 10592 10589 10586 10583 10580 10577 10574 10571
10707 10710 10713 10715 10717 10720 10722 10724 10726 10728 10730 10731 10733 10734 10735 10736 10736 10736 10737 10737 10738 10738 10737 10736 10735 10734 10733 10731 10730 10728 10726 10723 10721 10719 10717 10715 10712 10710 10708 10705 10703 10700 10697 10694 10691 10687 10684 10680 10677 10673 10669 10666 10662 10659 10656 10652 10648 10644 10641 10638 10635 10632 10629 10626 10623 10621 10619 10616 10614 10611 10605 10604 10606 10604 10601 10598 10596 10594 10591 10587 10585 10582 10579 10576 10573 10570 10566 10563
10705 10708 10711 10713 10716 10718 10720 10723 10725 10726 10728 10730 10732 10732 10733 10734 10734 10734 10735 10735 10735 10735 10734 10733 10731 10730 10729 10728 10726 10723 10721 10719 10717 10715 10712 10710 10708 10705 10703 10700 10697 10694 10691 10688 10684 10681 10678 10674 10670 10666 10663 10659 10655 10652 10648 10644 10641 10638 10635 10632 10629 10627 10624 10622 10619 10616 10614 10611 10609 10606 10598 10595 10597 10596 10592 10591 10589 10586 10583 10579 10576 10573 10570 10567 10564 10562 10558 10555
10703 10707 10709 10712 10714 10717 10719 10721 10723 10725 10726 10728 10730 10730 10731 10732 10732 10732 10733 10733 10733 10732 10731 10729 10728 10727 10725 10723 10721 10719 10717 10715 10713 10710 10708 10706 10703 10700 10697 10694 10691 10688 10685 10682 10678 10675 10671 10667 10664 10660 10656 10652 10648 10645 10641 10638 10635 10632 10629 10627 10624 10621 10619 10616 10614 10611 10608 10606 10603 10600 10593 10587 10587 10587 10583 10580 10578 10576 10574 10571 10567 10564 10561 10558 10555 10552 10549 10546
10702 10706 10708 10710 10713 10715 10717 10720 10722 10723 10725 10727 10728 10728 10729 10730 10730 10730 10730 10730 10729 10728 10727 10726 10724 10723 10721 10719 10717 10715 10713 10710 10708 10706 10703 10701 10698 10695 10692 10689 10686 10682 10679 10676 10672 10669 10665 10661 10657 10653 10650 10646 10643 10639 10636 10633 10630 10628 10625 10622 10619 10616 10613 10610 10608 10605 10602 10600 10597 10593 10587 10581 10578 10577 10574 10571 10568 10565 10562 10560 10557 10554 10551 10547 10545 10542 10539 10536
10701 10705 10707 10709 10712 10714 10717 10719 10721 10722 10724 10725 10726 10726 10727 10727 10728 10728 10727 10726 10725 10725 10724 10722 10720 10719 10717 10715 10713 10711 10709 10706 10703 10701 10698 10696 10693 10690 10686 10683 10680 10677 10674 10670 10666 10662 10659 10655 10651 10647 10644 10641 10638 10635 10632 10629 10626 10623 10620 10617 10614 10611 10608 10604 10601 10598 10595 10593 10590 10586 10580 10575 10570 10567 10565 10562 10559 10555 10552 10548 10545 10542 10539 10536 10533 10530 10527 10524
10699 10702 10705 10708 10711 10713 10716 10718 10720 10721 10722 10723 10724 10725 10725 10725 10725 10725 10724 10723 10722 10722 10720 10718 10717 10715 10713 10711 10709 10707 10704 10702 10699 10696 10694 10691 10688 10685 10682 10678 10675 10671 10668 10664 10660 10656 10652 10649 10645 10642 10639 10636 10633 10631 10627 10624 10621 10618 10615 10612 10609 10605 10601 10597 10594 10591 10588 10586 10582 10578 10573 10566 10561 10557 10554 10551 10549 10546 10542 10538 10534 10531 10527 10524 10521 10518 10515 10513
10697 10700 10704 10708 10710 10712 10715 10717 10718 10720 10720 10721 10722 10722 10723 10723 10723 10722 10721 10720 10719 10718 10716 10714 10713 10711 10709 10707 10705 10702 10700 10697 10694 10692 10689 10686 10683 10680 10677 10673 10669 10666 10662 10658 10654 10651 10647 10644 10641 10638 10635 10632 10629 10626 10623 10620 10616 10613 10609 10605 10602 10598 10594 10590 10587 10583 10581 10578 10575 10571 10566 10559 10553 10549 10545 10540 10536 10533 10530 10527 10523 10520 10516 10513 10509 10506 10503 10500
10697 10700 10703 10706 10708 10711 10714 10715 10717 10718 10718 10719 10720 10720 10720 10720 10719 10719 10718 10717 10716 10714 10712 10711 10709 10707 10705 10703 10700 10698 10695 10692 10690 10687 10684 10682 10678 10675 10671 10668 10664 10660 10656 10653 10649 10646 10643 10640 10636 10634 10631 10628 10625 10622 10618 10615 10610 10606 10603 10598 10595 10590 10586 10582 10578 10574 10572 10570 10567 10562 10557 10551 10543 10541 10538 10532 10526 10521 10517 10514 10510 10507 10504 10501 10497 10494 10490 10487
10696 10699 10701 10704 10707 10710 10712 10714 10715 10716 10716 10717 10718 10718 10718 10717 10716 10716 10715 10714 10712 10711 10709 10707 10705 10703 10701 10698 10696 10693 10691 10688 10686 10683 10680 10677 10674 10670 10666 10662 10659 10655 10652 10649 10645 10642 10639 10636 10633 10630 10627 10624 10620 10616 10612 10608 10604 10599 10595 10591 10587 10582 10577 10573 10568 10564 10562 10560 10558 10554 10549 10542 10533 10530 10529 10523 10517 10512 10506 10502 10498 10495 10491 10487 10484 10480 10475 10471
10695 10697 10700 10703 10706 10708 10710 10711 10712 10713 10714 10715 10715 10715 10715 10714 10714 10713 10712 10710 10709 10707 10705 10703 10701 10699 10697 10695 10692 10689 10687 10685 10682 10679 10676 10672 10669 10665 10661 10658 10654 10651 10648 10645 10642 10639 10636 10633 10629 10626 10622 10618 10614 10609 10604 10601 10597 10592 10587 10583 10579 10574 10569 10565 10560 10554 10551 10548 10547 10544 10541 10533 10523 10519 10518 10514 10509 10503 10498 10492 10488 10484 10480 10475 10471 10466 10462 10457
10693 10696 10699 10702 10704 10706 10707 10709 10710 10711 10712 10712 10712 10712 10712 10711 10711 10709 10708 10707 10705 10704 10702 10699 10697 10695 10693 10691 10688 10686 10683 10681 10678 10675 10671 10668 10665 10661 10658 10654 10651 10648 10645 10642 10639 10635 10632 10628 10624 10620 10615 10611 10607 10602 10597 10593 10589 10584 10579 10574 10570 10565 10560 10556 10552 10547 10541 10537 10535 10532 10530 10524 10514 10509 10507 10504 10500 10494 10489 10483 10479 10475 10470 10466 10461 10455 10449 10444
10692 10696 10699 10701 10702 10704 10705 10707 10708 10709 10710 10710 10710 10709 10709 10708 10707 10706 10705 10704 10702 10700 10698 10696 10694 10692 10689 10687 10684 10682 10679 10677 10673 10670 10667 10664 10661 10658 10655 10652 10649 10646 10642 10639 10635 10630 10626 10621 10617 10612 10608 10604 10600 10595 10589 10585 10582 10576 10571 10566 10562 10557 10551 10546 10543 10539 10533 10528 10524 10522 10519 10513 10504 10499 10496 10494 10490 10484 10478 10473 10469 10465 10460 10455 10449 10443 10437 10431
10692 10694 10697 10699 10700 10702 10704 10706 10706 10707 10707 10707 10707 10707 10706 10706 10705 10704 10702 10700 10698 10696 10694 10692 10690 10688 10686 10683 10681 10678 10676 10673 10669 10666 10663 10660 10658 10655 10652 10649 10646 10642 10638 10634 10629 10625 10620 10616 10611 10606 10602 10597 10593 10588 10582 10577 10573 10569 10564 10560 10554 10550 10544 10538 10532 10529 10525 10520 10515 10513 10510 10502 10494 10487 10484 10481 10477 10471 10466 10461 10457 10452 10446 10441 10435 10430 10424 10417
10690 10693 10695 10697 10699 10701 10702 10703 10704 10704 10705 10705 10704 10704 10704 10703 10702 10700 10699 10697 10695 10693 10691 10689 10687 10685 10683 10680 10678 10675 10672 10669 10666 10663 10661 10658 10655 10652 10648 10645 10641 10636 10632 10628 10623 10618 10614 10609 10604 10599 10594 10590 10586 10581 10576 10570 10565 10560 10556 10551 10546 10540 10535 10530 10524 10519 10515 10509 10504 10502 10500 10491 10481 10474 10469 10465 10461 10455 10451 10447 10442 10437 10430 10425 10420 10415 10409 10403
10688 10691 10694 10696 10698 10699 10700 10701 10702 10702 10702 10702 10702 10702 10701 10700 10699 10697 10695 10693 10692 10690 10688 10686 10684 10682 10680 10677 10674 10672 10669 10666 10664 10661 10658 10655 10652 10648 10643 10639 10635 10631 10626 10621 10617 10612 10608 10603 10598 10593 10588 10583 10578 10574 10569 10563 10557 10552 10548 10543 10538 10532 10527 10521 10515 10509 10504 10498 10491 10487 10486 10479 10468 10460 10454 10449 10445 10441 10437 10433 10428 10421 10415 10410 10405 10399 10393 10387
10687 10690 10692 10694 10696 10697 10698 10699 10700 10700 10700 10700 10700 10699 10698 10697 10696 10694 10692 10691 10689 10687 10686 10684 10682 10679 10677 10674 10671 10668 10666 10664 10661 10658 10655 10651 10647 10643 10638 10634 10630 10625 10621 10616 10611 10607 10602 10597 10592 10587 10582 10576 10571 10567 10562 10557 10551 10545 10540 10535 10530 10523 10518 10512 10506 10499 10493 10487 10480 10475 10472 10467 10457 10448 10443 10437 10432 10428 10423 10419 10412 10405 10400 10396 10390 10383 10377 10371
10687 10689 10691 10692 10694 10695 10696 10697 10698 10698 10698 10698 10697 10696 10695 10694 10692 10691 10690 10688 10687 10685 10683 10681 10679 10676 10674 10671 10669 10667 10664 10661 10658 10654 10650 10646 10642 10638 10634 10630 10625 10620 10615 10610 10605 10601 10597 10591 10585 10580 10575 10569 10564 10559 10555 10550 10544 10538 10532 10526 10520 10513 10507 10503 10499 10493 10487 10479 10471 10467 10463 10456 10448 10438 10431 10426 10421 10417 10411 10404 10398 10392 10388 10383 10376 10369 10362 10355
10686 10687 10689 10691 10692 10693 10695 10696 10696 10696 10696 10695 10694 10693 10692 10691 10690 10689 10688 10686 10685 10683 10681 10679 10676 10674 10672 10669 10667 10664 10661 10657 10653 10649 10646 10642 10638 10633 10629 10625 10620 10615 10610 10605 10600 10595 10591 10586 10581 10575 10570 10564 10559 10553 10548 10542 10537 10532 10526 10520 10515 10509 10500 10495 10492 10487 10483 10477 10464 10458 10454 10446 10440 10432 10422 10417 10411 10406 10401 10392 10386 10381 10376 10371 10363 10356 10349 10341
10684 10686 10688 10690 10691 10692 10693 10694 10694 10694 10693 10693 10692 10691 10690 10689 10688 10687 10686 10684 10682 10680 10678 10677 10674 10672 10670 10667 10664 10660 10657 10653 10649 10646 10642 10638 10633 10629 10625 10620 10615 10610 10605 10601 10596 10591 10586 10582 10577 10571 10566 10561 10555 10549 10543 10538 10532 10527 10521 10515 10510 10505 10496 10488 10485 10480 10475 10472 10461 10452 10447 10437 10432 10427 10416 10410 10404 10397 10390 10382 10377 10372 10365 10359 10352 10344 10336 10328
10684 10686 10688 10689 10690 10691 10692 10692 10692 10691 10691 10691 10690 10689 10688 10687 10686 10685 10684 10682 10680 10679 10677 10675 10673 10670 10667 10663 10660 10656 10653 10650 10646 10642 10638 10633 10629 10624 10620 10616 10611 10606 10601 10597 10593 10588 10583 10578 10573 10567 10562 10557 10551 10546 10540 10534 10528 10522 10516 10510 10504 10499 10493 10482 10476 10473 10466 10465 10459 10448 10442 10432 10424 10421 10411 10402 10396 10389 10381 10372 10366 10362 10354 10346 10339 10331 10323 10315
10684 10686 10687 10688 10689 10689 10690 10690 10690 10690 10689 10689 10688 10688 10687 10686 10685 10683 10682 10680 10679 10677 10675 10673 10670 10666 10663 10659 10656 10653 10649 10646 10642 10638 10634 10629 10625 10620 10616 10612 10608 10604 10599 10594 10589 10585 10579 10574 10569 10564 10559 10553 10548 10542 10537 10531 10525 10519 10511 10505 10499 10493 10490 10481 10471 10465 10457 10454 10453 10446 10438 10427 10416 10412 10405 10394 10386 10378 10370 10362 10357 10351 10343 10334 10326 10318 10311 10303
10684 10685 10686 10687 10687 10688 10688 10688 10688 10688 10688 10688 10687 10686 10685 10684 10683 10682 10680 10679 10677 10675 10672 10669 10666 10663 10659 10656 10653 10649 10646 10642 10638 10634 10630 10626 10621 10618 10614 10610 10606 10601 10597 10592 10587 10582 10577 10572 10566 10561 10555 10549 10544 10538 10531 10526 10519 10513 10506 10499 10494 10486 10482 10479 10472 10463 10451 10442 10441 10438 10432 10419 10406 10401 10396 10386 10377 10369 10360 10353 10347 10340 10331 10322 10314 10305 10298 10291
10683 10684 10685 10686 10686 10686 10687 10687 10687 10687 10687 10686 10686 10685 10684 10683 10682 10680 10679 10676 10674 10672 10669 10666 10663 10660 10656 10653 10650 10646 10643 10639 10635 10631 10627 10624 10619 10615 10611 10607 10603 10598 10594 10590 10585 10580 10574 10568 10563 10558 10552 10545 10539 10533 10526 10519 10512 10507 10501 10493 10488 10481 10473 10468 10464 10459 10448 10433 10425 10424 10423 10414 10398 10390 10386 10377 10368 10359 10351 10344 10337 10329 10320 10310 10300 10292 10284 10277
10682 10683 10684 10684 10685 10685 10686 10686 10686 10686 10686 10685 10685 10684 10683 10682 10680 10678 10676 10673 10671 10668 10666 10663 10660 10657 10654 10651 10647 10644 10640 10637 10633 10629 10625 10621 10617 10613 10609 10605 10601 10596 10591 10586 10581 10576 10571 10565 10560 10554 10549 10542 10536 10529 10523 10516 10508 10501 10495 10487 10480 10474 10466 10458 10451 10447 10441 10429 10417 10412 10412 10408 10395 10382 10375 10368 10359 10351 10343 10336 10327 10317 10307 10297 10287 10279 10271 10263
10681 10682 10683 10683 10684 10685 10685 10686 10686 10686 10685 10685 10684 10683 10681 10679 10677 10675 10673 10671 10668 10665 10663 10660 10657 10654 10651 10648 10645 10641 10638 10634 10630 10627 10623 10619 10616 10612 10608 10604 10599 10594 10589 10584 10579 10574 10568 10562 10557 10551 10545 10539 10532 10525 10518 10511 10504 10496 10489 10482 10474 10467 10459 10451 10443 10436 10431 10422 10411 10403 10398 10397 10390 10375 10365 10357 10348 10342 10334 10324 10315 10305 10295 10285 10276 10267 10259 10251
10681 10682 10683 10684 10684 10685 10685 10686 10686 10685 10685 10684 10682 10681 10679 10677 10675 10673 10670 10668 10666 10663 10660 10658 10654 10652 10649 10645 10643 10639 10636 10632 10629 10625 10622 10618 10614 10610 10606 10601 10596 10591 10586 10581 10575 10570 10565 10559 10553 10547 10540 10534 10527 10520 10514 10507 10500 10492 10485 10477 10469 10462 10454 10446 10438 10429 10423 10413 10402 10393 10386 10386 10382 10366 10353 10345 10336 10330 10322 10311 10302 10293 10283 10274 10264 10255 10246 10237
10681 10682 10683 10684 10685 10685 10686 10686 10685 10684 10683 10682 10680 10678 10676 10674 10672 10670 10668 10666 10664 10660 10658 10655 10653 10650 10647 10644 10641 10638 10634 10631 10628 10624 10621 10616 10612 10608 10603 10598 10593 10588 10582 10578 10573 10567 10562 10555 10548 10541 10535 10529 10523 10517 10510 10504 10496 10489 10483 10475 10466 10459 10451 10443 10434 10425 10416 10406 10395 10385 10375 10373 10374 10360 10342 10333 10325 10318 10310 10300 10291 10282 10271 10261 10250 10240 10230 10221
10682 10683 10684 10685 10685 10685 10685 10684 10683 10682 10681 10679 10678 10676 10674 10672 10670 10668 10667 10664 10661 10659 10656 10653 10651 10648 10646 10643 10640 10636 10633 10630 10626 10623 10618 10614 10610 10605 10600 10595 10589 10585 10579 10574 10569 10563 10556 10550 10544 10537 10531 10524 10518 10512 10506 10499 10492 10485 10479 10472 10463 10454 10446 10437 10429 10420 10411 10400 10388 10377 10365 10359 10360 10353 10336 10325 10318 10308 10298 10288 10278 10266 10254 10243 10233 10224 10215 10206
10683 10684 10684 10685 10685 10684 10684 10683 10682 10680 10678 10677 10675 10674 10672 10670 10669 10666 10664 10662 10659 10657 10655 10653 10650 10647 10645 10642 10639 10636 10632 10629 10625 10621 10617 10612 10607 10602 10597 10593 10587 10582 10576 10570 10565 10559 10553 10547 10541 10535 10528 10521 10514 10507 10501 10494 10487 10480 10473 10469 10462 10452 10444 10434 10424 10416 10407 10397 10385 10371 10359 10347 10340 10336 10326 10317 10310 10299 10286 10275 10264 10252 10240 10229 10219 10209 10200 10191
10683 10684 10684 10684 10683 10683 10682 10681 10679 10678 10676 10675 10674 10672 10670 10668 10667 10664 10662 10661 10659 10657 10655 10652 10649 10647 10644 10641 10638 10635 10631 10627 10623 10618 10614 10610 10605 10600 10595 10590 10585 10579 10573 10567 10561 10556 10551 10545 10538 10531 10524 10517 10510 10502 10495 10488 10481 10473 10465 10461 10458 10451 10443 10433 10423 10413 10403 10393 10381 10367 10357 10345 10330 10319 10312 10307 10300 10288 10276 10266 10254 10242 10230 10218 10208 10198 10188 10178
10683 10683 10683 10683 10682 10681 10680 10678 10677 10676 10675 10674 10672 10670 10669 10667 10665 10663 10662 10661 10659 10657 10654 10651 10649 10646 10643 10640 10637 10634 10629 10625 10621 10616 10612 10607 10603 10598 10593 10588 10583 10577 10571 10565 10558 10551 10546 10540 10533 10527 10521 10514 10507 10499 10491 10483 10475 10467 10458 10450 10445 10442 10438 10430 10420 10412 10401 10387 10372 10359 10350 10343 10329 10312 10302 10297 10288 10276 10265 10255 10243 10230 10218 10207 10197 10187 10176 10164
10683 10683 10682 10681 10681 10679 10678 10677 10676 10675 10674 10672 10671 10669 10668 10666 10665 10663 10662 10661 10658 10656 10654 10651 10648 10645 10642 10639 10635 10631 10627 10623 10620 10615 10611 10606 10602 10597 10592 10586 10581 10575 10569 10563 10556 10549 10543 10538 10531 10524 10518 10511 10504 10496 10487 10479 10470 10461 10451 10441 10432 10425 10421 10416 10407 10400 10395 10384 10367 10349 10337 10330 10319 10304 10293 10287 10277 10264 10253 10242 10231 10219 10206 10195 10183 10172 10161 10151
10682 10682 10681 10680 10679 10678 10677 10676 10675 10674 10673 10671 10670 10669 10667 10666 10665 10664 10662 10660 10658 10656 10653 10650 10647 10644 10641 10637 10633 10629 10625 10622 10618 10614 10609 10604 10599 10594 10588 10583 10578 10572 10566 10560 10554 10547 10540 10535 10529 10521 10514 10506 10498 10490 10481 10473 10465 10455 10445 10433 10423 10413 10405 10399 10390 10380 10378 10375 10363 10345 10329 10316 10304 10291 10281 10273 10264 10252 10242 10232 10221 10208 10194 10182 10172 10162 10151 10142
10682 10681 10680 10679 10678 10677 10676 10675 10674 10673 10672 10671 10670 10669 10667 10666 10665 10664 10662 10660 10657 10655 10652 10649 10646 10642 10639 10635 10632 10628 10624 10620 10615 10611 10606 10602 10597 10592 10586 10581 10575 10569 10564 10558 10552 10544 10536 10530 10524 10517 10509 10501 10493 10485 10476 10468 10458 10449 10438 10426 10417 10407 10397 10391 10382 10370 10362 10359 10351 10337 10323 10308 10291 10282 10272 10260 10251 10241 10231 10222 10209 10196 10185 10174 10164 10154 10143 10132
10681 10680 10679 10678 10677 10676 10675 10674 10674 10673 10672 10671 10670 10669 10667 10666 10665 10663 10661 10659 10656 10654 10651 10648 10645 10641 10638 10634 10630 10627 10622 10618 10614 10609 10605 10600 10596 10591 10585 10580 10574 10568 10562 10556 10550 10543 10534 10526 10520 10513 10505 10497 10489 10480 10471 10463 10453 10443 10432 10421 10412 10402 10391 10382 10377 10368 10356 10349 10339 10324 10311 10298 10282 10275 10269 10255 10243 10234 10223 10212 10201 10189 10179 10167 10155 10145 10134 10123
10680 10679 10678 10677 10676 10676 10675 10674 10673 10672 10672 10671 10670 10669 10668 10667 10665 10663 10661 10658 10655 10653 10650 10647 10644 10640 10637 10633 10629 10625 10621 10617 10613 10609 10604 10599 10594 10589 10584 10578 10573 10566 10560 10554 10547 10541 10534 10524 10516 10510 10503 10494 10486 10477 10468 10458 10448 10439 10428 10417 10406 10396 10385 10371 10362 10357 10349 10342 10334 10317 10299 10283 10267 10258 10253 10242 10230 10220 10211 10203 10193 10181 10168 10156 10146 10136 10126 10116
10678 10678 10677 10677 10676 10675 10675 10674 10674 10673 10672 10672 10670 10669 10668 10666 10665 10662 10660 10657 10655 10652 10649 10646 10642 10639 10635 10632 10628 10624 10621 10617 10612 10608 10603 10598 10593 10588 10582 10576 10570 10564 10558 10552 10545 10538 10532 10524 10515 10506 10500 10491 10481 10472 10462 10453 10443 10434 10423 10411 10398 10387 10379 10366 10351 10340 10332 10324 10320 10312 10293 10270 10254 10245 10235 10224 10212 10201 10194 10187 10177 10165 10153 10142 10134 10126 10117 10108
10678 10677 10677 10677 10676 10676 10675 10675 10674 10674 10673 10672 10671 10670 10668 10666 10664 10662 10659 10657 10654 10651 10648 10645 10642 10638 10635 10632 10628 10624 10620 10616 10612 10607 10602 10597 10592 10586 10581 10575 10569 10563 10556 10550 10543 10535 10528 10521 10512 10502 10493 10486 10477 10467 10457 10447 10438 10428 10417 10406 10393 10380 10371 10362 10348 10331 10317 10307 10301 10300 10288 10260 10241 10235 10223 10210 10199 10186 10176 10169 10159 10149 10138 10128 10119 10110 10104 10097
10678 10678 10677 10677 10676 10676 10676 10675 10675 10674 10674 10673 10671 10670 10668 10666 10664 10662 10659 10656 10654 10651 10648 10645 10641 10638 10635 10631 10628 10624 10620 10616 10611 10606 10601 10596 10591 10586 10580 10574 10568 10561 10554 10547 10541 10533 10524 10517 10509 10499 10489 10479 10470 10461 10451 10440 10431 10421 10410 10398 10387 10374 10362 10354 10345 10330 10313 10299 10289 10287 10281 10256 10232 10223 10212 10198 10188 10174 10161 10154 10148 10140 10130 10120 10109 10098 10091 10084
10678 10678 10677 10677 10677 10677 10677 10676 10676 10675 10674 10673 10671 10670 10668 10666 10663 10661 10659 10656 10654 10651 10648 10645 10642 10638 10635 10632 10628 10624 10620 10615 10610 10606 10601 10596 10591 10585 10579 10573 10566 10559 10552 10544 10537 10530 10522 10514 10507 10498 10487 10477 10467 10456 10446 10436 10425 10414 10403 10392 10379 10367 10354 10343 10336 10327 10311 10294 10280 10274 10271 10254 10231 10217 10205 10190 10178 10165 10153 10145 10140 10133 10123 10112 10102 10091 10081 10073
10678 10678 10678 10679 10678 10678 10678 10677 10677 10676 10675 10673 10671 10670 10668 10666 10663 10661 10659 10657 10654 10651 10648 10645 10642 10639 10636 10632 10628 10624 10619 10615 10610 10606 10601 10595 10589 10583 10577 10571 10564 10557 10550 10542 10535 10527 10520 10512 10505 10496 10484 10473 10464 10454 10443 10433 10422 10410 10398 10387 10374 10361 10348 10333 10322 10317 10307 10289 10273 10266 10262 10247 10227 10213 10199 10185 10174 10162 10149 10139 10132 10125 10115 10103 10092 10083 10074 10066
10679 10679 10679 10680 10679 10679 10679 10678 10677 10676 10675 10673 10672 10670 10668 10666 10664 10662 10660 10657 10655 10652 10649 10646 10643 10640 10636 10633 10629 10625 10620 10615 10610 10605 10600 10594 10588 10582 10576 10569 10562 10555 10548 10540 10532 10524 10516 10508 10503 10497 10487 10475 10464 10453 10442 10428 10417 10406 10395 10384 10371 10356 10343 10330 10317 10309 10302 10287 10268 10260 10258 10243 10223 10209 10195 10179 10168 10156 10143 10131 10121 10113 10106 10095 10085 10075 10067 10059
10680 10680 10680 10680 10680 10680 10680 10679 10677 10676 10675 10674 10672 10670 10668 10666 10665 10662 10660 10658 10655 10652 10649 10646 10643 10640 10636 10633 10629 10625 10621 10616 10610 10605 10599 10593 10587 10581 10574 10567 10560 10553 10546 10538 10530 10521 10511 10501 10493 10489 10484 10476 10466 10455 10444 10431 10416 10404 10391 10379 10366 10350 10336 10324 10312 10301 10294 10283 10262 10247 10247 10241 10222 10206 10191 10175 10162 10149 10135 10122 10110 10099 10091 10083 10075 10066 10058 10050
10681 10681 10681 10681 10681 10681 10680 10679 10678 10677 10675 10674 10672 10670 10669 10667 10665 10663 10661 10658 10656 10653 10650 10646 10643 10639 10636 10632 10627 10623 10619 10614 10609 10604 10598 10592 10586 10579 10573 10566 10559 10552 10544 10536 10527 10518 10508 10497 10485 10476 10468 10460 10451 10441 10431 10423 10413 10400 10386 10371 10357 10345 10331 10317 10304 10291 10281 10275 10259 10236 10227 10228 10217 10201 10188 10173 10159 10145 10130 10119 10107 10093 10082 10073 10064 10055 10047 10038
10682 10682 10682 10682 10682 10681 10681 10679 10678 10677 10676 10674 10673 10671 10669 10668 10666 10664 10662 10659 10656 10653 10650 10646 10643 10639 10635 10631 10626 10622 10618 10613 10609 10603 10597 10591 10585 10578 10572 10565 10558 10550 10542 10534 10526 10517 10507 10495 10482 10470 10461 10451 10441 10431 10421 10411 10402 10391 10379 10366 10353 10340 10327 10311 10297 10284 10271 10263 10256 10236 10216 10209 10204 10193 10178 10164 10150 10136 10121 10110 10101 10089 10077 10067 10057 10046 10036 10026
10683 10683 10683 10683 10683 10682 10681 10680 10679 10678 10677 10675 10673 10672 10670 10669 10667 10665 10662 10660 10657 10653 10650 10647 10643 10639 10635 10631 10627 10622 10617 10612 10607 10602 10596 10589 10583 10576 10570 10563 10555 10548 10540 10532 10524 10515 10506 10496 10483 10470 10460 10450 10440 10430 10419 10405 10393 10382 10372 10363 10350 10335 10320 10306 10292 10280 10265 10253 10248 10238 10220 10204 10195 10184 10168 10150 10136 10124 10112 10101 10092 10082 10070 10059 10048 10039 10029 10020
10684 10684 10684 10683 10683 10683 10682 10681 10680 10679 10677 10676 10674 10673 10671 10669 10668 10665 10663 10660 10657 10654 10650 10647 10643 10640 10636 10632 10628 10623 10617 10612 10606 10600 10595 10589 10583 10576 10569 10562 10554 10546 10538 10530 10522 10514 10505 10496 10486 10473 10461 10450 10439 10427 10416 10404 10392 10379 10367 10355 10342 10327 10313 10301 10288 10276 10264 10248 10237 10230 10218 10200 10183 10169 10155 10140 10126 10113 10101 10091 10082 10072 10062 10051 10041 10032 10024 10015
10685 10685 10685 10684 10684 10683 10683 10682 10681 10679 10678 10676 10675 10673 10672 10670 10668 10666 10663 10660 10657 10654 10650 10647 10644 10640 10636 10632 10628 10624 10618 10613 10606 10600 10594 10588 10582 10576 10568 10560 10552 10544 10536 10528 10519 10511 10502 10494 10486 10475 10463 10451 10439 10426 10414 10403 10391 10378 10364 10351 10339 10326 10310 10296 10285 10274 10263 10248 10231 10217 10205 10189 10171 10157 10144 10132 10119 10106 10094 10084 10073 10062 10052 10044 10034 10025 10017 10009
10686 10686 10686 10685 10685 10684 10683 10683 10681 10680 10679 10677 10676 10674 10672 10671 10668 10666 10663 10660 10657 10654 10650 10647 10643 10639 10635 10631 10626 10621 10616 10610 10605 10599 10593 10587 10580 10573 10566 10558 10550 10541 10532 10525 10517 10509 10501 10492 10484 10474 10463 10452 10441 10429 10415 10401 10387 10375 10364 10352 10339 10328 10311 10293 10280 10269 10257 10245 10229 10210 10195 10183 10169 10156 10142 10128 10113 10100 10089 10080 10070 10058 10047 10039 10031 10022 10012 10002
10687 10687 10687 10686 10686 10685 10684 10683 10682 10681 10679 10678 10676 10675 10673 10671 10669 10666 10663 10660 10657 10654 10650 10647 10643 10639 10634 10629 10624 10619 10614 10608 10602 10596 10590 10583 10576 10568 10561 10553 10545 10537 10529 10522 10514 10506 10498 10490 10482 10473 10462 10450 10438 10426 10414 10403 10390 10377 10365 10353 10339 10326 10310 10290 10272 10258 10242 10227 10215 10201 10186 10175 10164 10152 10140 10126 10110 10095 10083 10075 10067 10056 10045 10034 10024 10014 10005 9995
10688 10688 10687 10687 10687 10686 10685 10684 10682 10681 10680 10678 10677 10675 10673 10671 10669 10666 10664 10661 10658 10654 10651 10647 10643 10639 10634 10629 10624 10619 10613 10606 10600 10594 10587 10580 10573 10565 10557 10549 10542 10534 10527 10519 10511 10503 10494 10485 10477 10468 10458 10448 10437 10423 10409 10398 10388 10374 10360 10347 10333 10320 10306 10287 10268 10252 10235 10215 10199 10187 10176 10165 10155 10144 10133 10121 10106 10090 10076 10066 10057 10047 10037 10027 10016 10004 9995 9985